SCP
0 0 0 -0 0 0 0 0 0 0 0 0 0 0 0 0 0 0 0 0 -0 -0 -0 -0 -0 -0 -0 -0 -0 -0 -0 -0 -0 -0 -0 -0 -0 0 0 0 0 0 0 0 0 0 0 0 0
0 0 -0 0 0 0 0 0 0 0 0 0 0 0 0 0 0 0 0 0 0 -0 -0 -0 -0 -1 -1 -1 -1 -0 -0 -0 -0 -0 -0 -0 0 0 0 0 0 0 0 0 0 0 0 0 0
-0 -0 -0 0 0 0 0 0 0 0 0 0 0 0 0 0 0 0 0 -0 -0 -0 -0 -0 -0 -0 -0 -1 -1 -0 -0 -0 -0 -0 -0 -0 0 0 0 0 0 0 0 0 0 0 0 0 0
-0 -0 0 0 0 0 0 0 0 0 0 0 0 0 0 0 0 0 0 -0 -0 -0 -0 -0 -0 -0 -0 -0 -0 -0 -0 -0 -0 -0 -0 -0 -0 0 0 0 0 0 0 0 0 0 0 0 0
-0 0 0 0 0 0 0 0 0 0 0 0 0 0 0 0 0 0 0 0 -0 0 0 -0 -0 -0 -0 -0 -0 -0 -0 -0 -0 -0 -0 -0 -0 0 0 0 0 0 0 0 0 0 0 0 0
0 0 0 0 0 0 0 0 0 0 0 0 0 0 0 0 0 0 0 0 0 0 0 -0 -0 -0 -0 -0 -0 -0 0 0 0 0 -0 -0 -0 0 0 0 0 0 0 0 0 0 0 0 0
0 0 0 0 0 0 0 0 0 0 0 0 0 0 0 0 0 0 0 0 0 0 0 0 0 -0 -0 -0 -0 -0 -0 0 0 0 0 0 0 0 0 0 0 0 0 0 0 0 0 0 0
0 0 0 0 0 0 0 0 0 0 0 0 0 0 0 0 0 0 0 0 0 0 0 0 0 0 0 0 -0 -0 0 0 0 0 0 0 0 0 0 0 0 0 0 0 0 0 0 0 0
0 0 0 0 0 0 0 0 0 0 0 0 0 0 0 0 0 0 0 0 0 0 0 0 0 0 0 0 0 0 0 0 0 0 0 0 0 0 0 0 0 0 0 0 0 0 0 0 0
0 0 0 0 0 0 0 0 0 0 0 0 0 0 0 0 0 0 0 0 0 0 0 0 0 0 0 0 0 0 0 0 0 0 0 0 0 0 0 0 0 0 0 0 0 0 0 0 0
0 0 0 0 0 0 0 0 0 0 0 0 0 0 0 0 0 0 0 0 0 0 0 0 0 0 0 0 0 0 0 0 0 0 0 0 0 0 0 0 0 0 0 0 0 0 0 0 0
0 0 0 0 0 0 0 0 0 0 0 0 0 0 0 0 0 0 0 0 0 0 0 0 0 0 0 0 0 0 0 0 0 0 0 0 0 0 0 0 0 0 0 0 0 0 0 0 0
0 0 0 0 0 0 0 0 0 0 0 0 0 0 0 0 0 0 0 0 0 0 0 0 0 0 0 0 0 0 0 0 0 0 0 0 0 0 0 0 0 0 0 0 0 0 0 0 0
0 0 0 0 0 0 0 0 0 0 0 0 0 0 0 0 0 0 0 0 0 0 0 0 0 0 0 0 0 0 0 0 0 0 0 0 0 0 0 0 0 0 0 0 0 0 0 0 0
0 0 0 0 0 0 0 0 0 0 0 0 0 0 0 0 0 0 0 0 0 0 0 0 0 0 0 0 0 0 0 0 0 0 0 0 0 0 0 0 0 0 0 0 0 0 0 0 0
0 0 0 0 0 0 0 0 0 0 0 0 0 0 0 0 0 0 0 0 0 0 0 0 0 0 0 0 0 0 0 0 0 0 0 0 0 0 0 0 0 0 0 0 0 0 0 0 0
0 0 0 0 0 0 0 0 0 0 0 0 0 0 0 0 0 0 0 0 0 0 0 0 0 0 0 0 0 0 0 0 0 0 0 0 0 0 0 0 0 0 0 0 0 0 0 0 0
0 0 0 0 0 0 0 0 0 0 0 0 0 0 0 0 0 0 0 0 0 0 0 0 0 0 0 0 0 0 0 0 0 0 0 0 0 0 0 0 0 0 0 0 0 0 0 0 0
0 0 0 0 0 0 0 0 0 0 0 0 0 0 0 0 0 0 0 0 0 0 0 0 0 0 0 0 0 0 0 0 0 0 0 0 0 0 0 0 0 0 0 0 0 0 0 0 0
0 0 0 0 0 0 0 0 0 0 0 0 0 0 0 0 0 0 0 0 0 0 0 0 0 0 0 0 0 0 0 0 0 0 0 0 0 0 0 0 0 0 0 0 0 0 0 0 0
0 0 0 0 0 0 0 0 0 0 0 0 0 0 0 0 0 0 0 0 0 0 0 0 0 0 0 0 0 0 0 0 0 0 0 0 0 0 0 0 0 0 0 0 0 0 0 0 0
0 0 0 0 0 0 0 0 0 0 0 0 0 0 0 0 0 0 0 0 0 0 0 0 0 0 0 0 0 0 0 0 0 0 0 0 0 0 0 0 0 0 0 0 0 0 0 0 0
0 0 0 0 0 0 0 0 0 0 0 0 0 0 0 0 0 0 0 0 0 0 0 0 0 0 0 0 0 0 0 0 0 0 0 0 0 0 0 0 0 0 0 0 0 0 0 0 0
0 0 0 0 0 0 0 0 0 0 0 0 0 0 0 0 0 0 0 0 0 0 0 0 0 0 0 0 0 0 0 0 0 0 0 0 0 0 0 0 0 0 0 0 0 0 0 0 0
0 0 0 0 0 0 0 0 0 0 0 0 0 0 0 0 0 0 0 0 0 0 0 -0 -0 0 0 0 0 0 0 0 0 0 0 0 0 0 0 0 0 0 0 0 0 0 0 0 0
0 0 0 0 0 0 0 0 0 0 0 0 0 0 0 0 0 0 0 0 0 -0 -0 -0 -0 -0 -0 0 0 0 0 0 0 0 0 0 0 0 0 0 0 0 0 0 0 0 0 0 0
0 0 0 0 0 0 0 0 0 0 0 0 0 0 0 0 0 0 0 -0 -0 -0 -0 -0 -0 -0 0 0 0 0 0 0 0 0 0 0 0 0 0 0 0 0 0 0 0 0 0 0 0
0 0 0 0 0 0 0 0 0 0 0 0 0 0 0 0 0 0 -0 -0 -0 -0 -0 -0 0 0 0 0 0 0 0 0 0 0 0 0 0 0 0 0 0 0 0 0 0 0 0 0 0
0 0 0 0 0 0 0 0 0 0 0 0 0 0 0 0 0 0 0 -0 -0 -0 -0 -0 -0 -0 -0 -0 -0 -0 -0 0 0 0 0 0 0 0 0 0 0 0 0 0 0 0 0 0 0
0 0 0 0 0 0 0 0 0 0 0 0 0 0 0 0 0 0 0 -0 -0 -0 0 -0 -0 -0 -0 -0 -0 -0 -0 -0 -0 -0 -0 0 0 0 0 0 0 0 0 0 0 0 0 0 0
Wind_Speed_500mb
13 10 4 3 8 10 3 5 2 3 3 3 2 2 4 3 5 7 4 6 9 24 32 42 41 39 37 35 34 32 30 27 24 21 20 17 15 14 12 10 6 6 3 3 2 2 3 2 1
9 6 5 5 10 7 9 8 4 6 6 4 2 3 0 1 2 3 6 6 7 15 28 41 42 39 38 36 34 31 29 27 25 24 22 20 14 15 14 13 14 13 8 7 4 3 4 3 2
6 7 4 8 7 6 7 6 6 4 6 2 1 3 3 4 5 3 4 6 8 15 22 37 42 41 39 37 35 34 31 28 26 24 25 22 14 17 18 18 19 19 10 7 6 6 6 4 5
2 4 8 8 2 8 9 9 7 4 1 1 2 3 2 6 3 2 4 7 10 15 19 31 42 43 42 40 38 35 32 30 27 26 27 25 20 19 20 22 23 22 14 9 9 8 7 5 6
9 7 8 5 7 9 5 7 6 4 2 2 2 3 7 8 7 2 3 5 10 17 20 26 40 44 43 42 40 38 35 32 29 30 28 24 23 25 20 23 24 20 15 12 11 9 6 4 6
6 5 8 2 8 10 7 2 6 5 9 4 4 7 4 6 9 6 3 4 7 14 19 24 30 42 44 44 43 40 37 35 31 31 30 28 27 30 16 21 21 19 16 14 10 9 7 7 8
8 7 6 6 6 9 5 0 6 4 2 2 3 4 9 9 14 11 6 4 8 14 19 24 28 35 44 46 45 44 42 39 36 35 35 31 29 31 18 21 21 19 17 14 12 10 10 11 10
4 8 1 5 5 5 14 16 6 8 5 6 1 6 7 20 15 19 17 12 15 18 21 23 28 33 38 45 47 46 44 42 41 41 38 35 36 37 22 21 21 20 19 15 13 14 14 14 13
0 8 3 6 4 9 22 12 10 14 13 15 14 19 25 33 29 29 26 23 23 24 26 27 30 33 37 40 45 48 47 44 43 43 41 43 43 40 29 23 23 21 21 17 15 17 18 18 16
7 7 13 9 7 7 11 6 23 7 30 40 36 35 26 24 24 30 36 34 34 31 30 33 35 35 36 41 45 50 48 46 45 46 45 47 47 42 35 26 29 27 25 22 19 21 22 21 20
10 10 9 12 14 13 16 25 8 4 12 47 58 49 39 36 35 32 36 43 48 41 32 34 37 39 39 42 44 51 53 49 49 49 50 49 49 46 42 35 34 32 30 28 25 25 26 25 24
5 21 25 18 30 17 6 17 19 20 46 47 48 44 37 42 44 47 44 44 45 41 38 34 31 34 38 40 42 47 54 54 54 54 53 53 53 50 47 42 37 38 33 31 30 29 32 31 30
8 9 17 23 31 33 31 30 24 52 47 30 32 20 22 16 19 18 23 28 33 42 39 37 33 30 30 34 37 43 47 51 54 54 55 54 55 53 51 50 48 44 40 35 34 34 37 37 36
3 10 24 26 45 35 19 12 1 23 19 25 23 26 23 19 18 23 36 38 36 39 43 39 41 33 31 32 31 34 40 40 41 43 46 51 52 52 54 57 57 50 45 39 39 39 40 41 42
7 10 15 31 13 8 5 1 13 21 29 26 24 18 13 15 11 14 10 14 23 32 37 33 31 30 31 32 30 28 32 38 38 39 36 37 48 51 49 45 48 46 42 41 43 44 45 46 47
6 4 6 7 4 2 8 14 18 24 36 31 17 19 21 20 19 18 17 13 4 14 26 26 26 19 21 30 29 26 29 35 34 35 36 36 41 44 44 45 46 43 39 42 45 47 47 46 49
5 6 10 15 6 5 7 12 24 40 36 39 14 15 24 26 21 18 17 21 21 13 13 23 23 21 24 29 28 27 26 29 29 31 32 33 35 38 43 41 39 40 39 43 46 48 49 49 51
10 8 9 10 6 3 10 17 23 43 46 8 27 30 30 32 33 25 20 15 14 16 15 17 17 18 22 21 19 19 20 20 24 23 23 27 30 32 35 37 38 41 43 45 47 49 51 53 53
6 7 12 10 13 5 10 13 17 30 24 35 37 41 45 50 45 43 39 32 23 19 15 15 12 11 9 14 18 15 15 14 16 18 21 21 23 24 28 31 34 38 42 43 44 48 51 55 55
10 12 14 12 11 1 10 16 13 30 20 30 39 45 49 52 52 55 58 58 56 50 42 32 27 20 17 12 10 9 14 15 16 20 23 23 25 21 17 23 29 33 37 40 43 48 52 53 54
9 11 9 15 6 5 3 11 4 9 25 35 40 44 45 50 50 51 55 59 58 60 58 53 48 41 33 22 12 8 6 5 8 11 13 15 18 20 18 15 19 25 33 37 39 43 49 55 53
13 9 13 5 5 7 5 8 8 7 8 16 32 40 41 43 45 47 50 53 53 52 47 45 44 44 42 35 31 24 22 20 22 19 14 7 8 13 16 17 19 23 30 34 36 38 43 49 55
15 6 9 7 6 3 5 3 10 12 6 7 18 34 37 37 41 45 48 47 47 44 44 42 38 38 37 34 31 28 28 29 24 20 19 16 11 11 15 21 24 25 26 28 30 35 41 48 54
8 6 11 9 6 2 14 13 7 10 12 14 25 30 33 35 35 38 39 38 40 37 37 36 35 36 34 30 30 29 27 24 20 21 24 26 25 22 21 19 22 26 29 32 35 36 34 39 50
7 10 5 6 4 10 8 7 7 13 8 35 38 38 32 29 30 30 31 31 30 30 30 29 27 30 31 30 28 30 30 29 30 31 31 31 33 34 33 34 33 32 33 34 38 41 44 44 44
11 15 10 13 6 7 8 10 5 8 30 51 46 40 31 25 21 21 21 21 22 23 23 22 22 24 26 27 29 29 29 31 33 33 34 38 40 40 40 41 40 40 39 40 41 43 45 50 52
8 7 4 11 5 5 8 5 5 7 13 29 41 34 28 22 15 12 10 12 17 17 20 20 21 23 23 26 28 31 31 32 35 37 40 40 39 44 47 48 47 47 49 49 49 48 50 51 51
7 9 6 5 3 10 7 8 8 19 21 15 22 33 31 24 19 11 5 4 8 10 12 13 15 20 21 24 24 28 32 32 34 38 42 46 48 50 54 57 58 58 56 54 56 58 55 57 57
2 2 5 6 8 10 4 10 1 26 30 27 36 43 35 30 23 15 8 1 4 6 8 13 19 26 30 30 32 30 29 28 32 39 45 50 53 56 58 62 65 68 69 67 67 64 64 63 62
3 9 11 8 9 9 2 16 10 25 41 46 45 41 36 30 25 18 10 5 5 2 11 15 19 27 33 35 37 39 42 44 47 50 51 53 57 60 65 68 70 72 72 76 80 81 75 74 72
Wind_Direction_500mb
340 319 327 78 57 64 293 281 148 86 6 180 233 145 186 227 164 212 177 181 156 173 181 189 196 200 201 201 199 196 193 193 195 196 201 197 198 191 187 186 245 279 260 259 281 20 19 25 71
343 356 52 72 81 65 288 269 162 207 198 178 192 146 17 218 197 199 173 219 170 173 187 190 198 203 206 207 206 204 203 203 203 204 208 218 204 206 225 247 264 271 264 225 255 300 313 297 210
1 16 44 88 106 161 186 235 221 263 165 182 106 257 296 206 195 183 229 214 208 187 192 198 202 206 209 212 212 210 212 213 213 212 207 220 210 214 230 241 252 264 273 257 262 286 281 270 248
337 36 59 77 237 254 188 211 210 142 196 175 102 339 261 237 250 221 253 244 220 212 199 201 207 209 211 214 216 218 220 217 212 210 205 233 235 233 234 239 244 257 261 261 276 276 271 255 220
25 45 47 33 284 279 282 162 113 36 354 261 259 249 276 233 237 169 263 277 236 222 214 208 209 213 215 217 218 219 221 221 215 216 222 226 253 256 246 229 235 246 255 264 272 267 263 219 200
62 56 52 331 286 291 295 316 95 41 11 51 282 301 285 248 204 189 177 244 241 234 225 219 215 217 219 219 221 222 224 222 218 223 226 242 254 261 236 234 235 247 255 264 258 255 237 212 204
94 78 195 226 260 310 251 260 111 151 17 104 238 294 293 273 239 228 228 261 252 239 234 229 225 220 222 224 223 224 226 226 221 226 235 246 247 260 252 245 240 249 260 264 265 257 221 209 208
55 94 300 262 293 294 353 337 346 339 310 150 276 254 280 329 295 263 245 261 264 257 247 239 233 231 227 225 226 227 228 227 224 226 235 240 250 261 267 252 249 254 256 254 250 234 221 220 221
187 60 256 249 18 297 335 1 353 326 296 298 265 263 292 302 292 279 266 268 273 270 262 250 241 237 234 233 230 228 226 227 225 227 231 236 245 257 268 276 257 253 255 255 245 232 226 227 230
114 123 226 211 173 273 297 274 308 311 304 296 292 300 288 290 309 298 277 283 285 273 280 271 255 245 239 235 233 231 230 221 224 228 232 235 243 253 261 272 265 263 263 260 248 234 233 235 239
173 192 217 264 268 289 307 297 259 205 288 293 299 308 301 296 295 289 285 284 289 285 269 275 265 253 246 240 235 230 231 231 228 230 234 240 245 252 259 264 269 261 260 261 255 246 243 244 247
171 244 242 268 284 295 279 295 303 271 278 307 310 308 297 294 300 297 291 289 284 285 282 269 269 259 255 250 241 235 233 234 235 237 240 242 248 254 259 265 274 270 261 257 254 247 245 246 249
216 268 261 264 280 282 283 268 272 281 293 303 333 336 357 349 335 307 307 295 276 267 276 267 257 261 255 257 254 242 236 234 237 239 243 245 248 254 260 268 273 275 263 259 259 253 249 249 250
235 298 290 289 278 277 264 284 277 284 311 312 314 359 360 3 336 296 284 296 282 266 261 264 254 258 256 256 262 261 249 242 239 240 243 245 241 248 258 267 272 274 263 260 262 260 256 254 254
317 323 317 279 276 224 194 140 232 296 298 289 324 3 34 34 350 8 359 308 301 281 256 249 245 249 252 254 259 266 263 255 253 251 250 249 247 252 270 272 272 279 259 261 262 261 257 253 252
330 25 335 285 145 147 133 257 272 314 294 291 23 71 78 74 67 67 60 56 321 251 237 223 209 215 238 241 248 257 262 253 248 251 248 259 251 251 272 277 278 285 270 267 266 264 263 262 259
343 233 212 308 260 125 174 244 259 287 295 295 112 94 90 90 80 66 59 59 63 81 152 181 185 184 197 222 232 239 245 249 250 255 259 259 262 266 270 273 275 277 273 275 275 270 268 267 267
205 219 249 246 272 105 245 250 270 291 296 333 118 100 90 80 66 62 65 73 82 96 113 137 148 154 176 196 215 227 232 232 240 247 247 256 264 269 274 273 269 270 273 281 281 279 277 275 273
195 212 239 259 264 271 264 278 3 15 49 99 97 96 89 83 79 77 77 83 94 108 119 116 132 125 171 189 194 194 204 215 221 236 251 256 263 273 279 279 278 282 282 285 286 283 280 279 278
235 241 247 260 244 263 288 306 43 38 51 81 99 96 96 95 89 82 79 77 76 77 78 81 83 86 93 99 129 177 211 223 238 244 246 254 258 263 282 289 283 282 282 282 278 279 283 283 279
222 214 231 232 331 286 347 294 62 49 73 87 96 104 98 91 87 82 78 76 76 74 73 75 77 79 78 78 96 135 179 197 235 256 259 262 261 256 252 262 274 280 280 281 283 282 277 279 284
267 211 216 194 82 238 48 280 206 166 85 75 99 98 93 90 85 79 74 71 67 65 65 67 69 71 74 77 81 79 77 68 46 30 14 331 268 265 269 269 269 269 272 278 284 280 277 277 278
221 151 152 160 171 42 307 123 269 135 166 130 101 99 94 83 78 74 71 66 64 60 56 52 52 55 52 50 54 55 55 54 47 41 34 29 5 326 309 304 300 295 290 282 275 278 281 277 275
133 57 36 46 100 274 211 164 246 193 190 146 127 116 109 101 88 78 73 69 66 63 59 54 47 50 48 44 43 42 41 38 28 24 18 16 12 9 3 351 335 322 309 297 291 284 279 274 272
100 80 316 338 348 232 148 144 261 316 143 153 144 133 120 109 99 88 77 68 64 60 57 53 48 48 45 40 39 35 29 21 16 10 6 0 356 352 351 349 344 337 330 321 308 298 290 284 277
177 160 165 210 214 248 298 244 276 47 106 130 138 136 132 123 109 93 77 65 57 55 52 48 44 43 35 30 27 22 16 10 4 1 353 346 345 344 339 332 328 327 325 322 316 311 303 295 289
181 177 189 101 38 44 228 76 94 106 116 134 143 149 152 150 141 115 95 65 57 54 48 43 45 41 26 19 11 2 359 353 350 346 342 339 333 329 327 328 325 320 318 318 314 310 308 303 295
152 161 78 12 230 251 278 253 204 189 178 174 169 173 178 174 170 168 155 93 50 55 61 54 38 28 21 7 0 352 345 341 336 332 328 327 326 323 322 322 320 317 317 315 312 311 307 302 300
57 214 82 133 144 193 260 254 2 183 177 179 193 197 193 188 190 188 193 217 44 72 41 22 18 11 8 2 1 355 344 339 331 328 326 323 321 320 319 317 314 311 311 312 309 306 304 303 301
298 212 166 158 242 241 174 260 333 168 175 183 198 203 203 206 203 202 210 227 210 335 352 348 348 347 347 346 342 341 338 334 330 328 326 322 319 315 314 311 309 306 305 305 304 304 301 299 298
Wind_Speed_850mb
13 10 4 3 8 10 3 5 2 3 3 3 2 2 4 3 5 7 4 6 9 24 32 42 41 39 37 35 34 32 30 27 24 21 20 17 15 14 12 10 6 6 3 3 2 2 3 2 1
9 6 5 5 10 7 9 8 4 6 6 4 2 3 0 1 2 3 6 6 7 15 28 41 42 39 38 36 34 31 29 27 25 24 22 20 14 15 14 13 14 13 8 7 4 3 4 3 2
6 7 4 8 7 6 7 6 6 4 6 2 1 3 3 4 5 3 4 6 8 15 22 37 42 41 39 37 35 34 31 28 26 24 25 22 14 17 18 18 19 19 10 7 6 6 6 4 5
2 4 8 8 2 8 9 9 7 4 1 1 2 3 2 6 3 2 4 7 10 15 19 31 42 43 42 40 38 35 32 30 27 26 27 25 20 19 20 22 23 22 14 9 9 8 7 5 6
9 7 8 5 7 9 5 7 6 4 2 2 2 3 7 8 7 2 3 5 10 17 20 26 40 44 43 42 40 38 35 32 29 30 28 24 23 25 20 23 24 20 15 12 11 9 6 4 6
6 5 8 2 8 10 7 2 6 5 9 4 4 7 4 6 9 6 3 4 7 14 19 24 30 42 44 44 43 40 37 35 31 31 30 28 27 30 16 21 21 19 16 14 10 9 7 7 8
8 7 6 6 6 9 5 0 6 4 2 2 3 4 9 9 14 11 6 4 8 14 19 24 28 35 44 46 45 44 42 39 36 35 35 31 29 31 18 21 21 19 17 14 12 10 10 11 10
4 8 1 5 5 5 14 16 6 8 5 6 1 6 7 20 15 19 17 12 15 18 21 23 28 33 38 45 47 46 44 42 41 41 38 35 36 37 22 21 21 20 19 15 13 14 14 14 13
0 8 3 6 4 9 22 12 10 14 13 15 14 19 25 33 29 29 26 23 23 24 26 27 30 33 37 40 45 48 47 44 43 43 41 43 43 40 29 23 23 21 21 17 15 17 18 18 16
7 7 13 9 7 7 11 6 23 7 30 40 36 35 26 24 24 30 36 34 34 31 30 33 35 35 36 41 45 50 48 46 45 46 45 47 47 42 35 26 29 27 25 22 19 21 22 21 20
10 10 9 12 14 13 16 25 8 4 12 47 58 49 39 36 35 32 36 43 48 41 32 34 37 39 39 42 44 51 53 49 49 49 50 49 49 46 42 35 34 32 30 28 25 25 26 25 24
5 21 25 18 30 17 6 17 19 20 46 47 48 44 37 42 44 47 44 44 45 41 38 34 31 34 38 40 42 47 54 54 54 54 53 53 53 50 47 42 37 38 33 31 30 29 32 31 30
8 9 17 23 31 33 31 30 24 52 47 30 32 20 22 16 19 18 23 28 33 42 39 37 33 30 30 34 37 43 47 51 54 54 55 54 55 53 51 50 48 44 40 35 34 34 37 37 36
3 10 24 26 45 35 19 12 1 23 19 25 23 26 23 19 18 23 36 38 36 39 43 39 41 33 31 32 31 34 40 40 41 43 46 51 52 52 54 57 57 50 45 39 39 39 40 41 42
7 10 15 31 13 8 5 1 13 21 29 26 24 18 13 15 11 14 10 14 23 32 37 33 31 30 31 32 30 28 32 38 38 39 36 37 48 51 49 45 48 46 42 41 43 44 45 46 47
6 4 6 7 4 2 8 14 18 24 36 31 17 19 21 20 19 18 17 13 4 14 26 26 26 19 21 30 29 26 29 35 34 35 36 36 41 44 44 45 46 43 39 42 45 47 47 46 49
5 6 10 15 6 5 7 12 24 40 36 39 14 15 24 26 21 18 17 21 21 13 13 23 23 21 24 29 28 27 26 29 29 31 32 33 35 38 43 41 39 40 39 43 46 48 49 49 51
10 8 9 10 6 3 10 17 23 43 46 8 27 30 30 32 33 25 20 15 14 16 15 17 17 18 22 21 19 19 20 20 24 23 23 27 30 32 35 37 38 41 43 45 47 49 51 53 53
6 7 12 10 13 5 10 13 17 30 24 35 37 41 45 50 45 43 39 32 23 19 15 15 12 11 9 14 18 15 15 14 16 18 21 21 23 24 28 31 34 38 42 43 44 48 51 55 55
10 12 14 12 11 1 10 16 13 30 20 30 39 45 49 52 52 55 58 58 56 50 42 32 27 20 17 12 10 9 14 15 16 20 23 23 25 21 17 23 29 33 37 40 43 48 52 53 54
9 11 9 15 6 5 3 11 4 9 25 35 40 44 45 50 50 51 55 59 58 60 58 53 48 41 33 22 12 8 6 5 8 11 13 15 18 20 18 15 19 25 33 37 39 43 49 55 53
13 9 13 5 5 7 5 8 8 7 8 16 32 40 41 43 45 47 50 53 53 52 47 45 44 44 42 35 31 24 22 20 22 19 14 7 8 13 16 17 19 23 30 34 36 38 43 49 55
15 6 9 7 6 3 5 3 10 12 6 7 18 34 37 37 41 45 48 47 47 44 44 42 38 38 37 34 31 28 28 29 24 20 19 16 11 11 15 21 24 25 26 28 30 35 41 48 54
8 6 11 9 6 2 14 13 7 10 12 14 25 30 33 35 35 38 39 38 40 37 37 36 35 36 34 30 30 29 27 24 20 21 24 26 25 22 21 19 22 26 29 32 35 36 34 39 50
7 10 5 6 4 10 8 7 7 13 8 35 38 38 32 29 30 30 31 31 30 30 30 29 27 30 31 30 28 30 30 29 30 31 31 31 33 34 33 34 33 32 33 34 38 41 44 44 44
11 15 10 13 6 7 8 10 5 8 30 51 46 40 31 25 21 21 21 21 22 23 23 22 22 24 26 27 29 29 29 31 33 33 34 38 40 40 40 41 40 40 39 40 41 43 45 50 52
8 7 4 11 5 5 8 5 5 7 13 29 41 34 28 22 15 12 10 12 17 17 20 20 21 23 23 26 28 31 31 32 35 37 40 40 39 44 47 48 47 47 49 49 49 48 50 51 51
7 9 6 5 3 10 7 8 8 19 21 15 22 33 31 24 19 11 5 4 8 10 12 13 15 20 21 24 24 28 32 32 34 38 42 46 48 50 54 57 58 58 56 54 56 58 55 57 57
2 2 5 6 8 10 4 10 1 26 30 27 36 43 35 30 23 15 8 1 4 6 8 13 19 26 30 30 32 30 29 28 32 39 45 50 53 56 58 62 65 68 69 67 67 64 64 63 62
3 9 11 8 9 9 2 16 10 25 41 46 45 41 36 30 25 18 10 5 5 2 11 15 19 27 33 35 37 39 42 44 47 50 51 53 57 60 65 68 70 72 72 76 80 81 75 74 72
Wind_Direction_850mb
340 319 327 78 57 64 293 281 148 86 6 180 233 145 186 227 164 212 177 181 156 173 181 189 196 200 201 201 199 196 193 193 195 196 201 197 198 191 187 186 245 279 260 259 281 20 19 25 71
343 356 52 72 81 65 288 269 162 207 198 178 192 146 17 218 197 199 173 219 170 173 187 190 198 203 206 207 206 204 203 203 203 204 208 218 204 206 225 247 264 271 264 225 255 300 313 297 210
1 16 44 88 106 161 186 235 221 263 165 182 106 257 296 206 195 183 229 214 208 187 192 198 202 206 209 212 212 210 212 213 213 212 207 220 210 214 230 241 252 264 273 257 262 286 281 270 248
337 36 59 77 237 254 188 211 210 142 196 175 102 339 261 237 250 221 253 244 220 212 199 201 207 209 211 214 216 218 220 217 212 210 205 233 235 233 234 239 244 257 261 261 276 276 271 255 220
25 45 47 33 284 279 282 162 113 36 354 261 259 249 276 233 237 169 263 277 236 222 214 208 209 213 215 217 218 219 221 221 215 216 222 226 253 256 246 229 235 246 255 264 272 267 263 219 200
62 56 52 331 286 291 295 316 95 41 11 51 282 301 285 248 204 189 177 244 241 234 225 219 215 217 219 219 221 222 224 222 218 223 226 242 254 261 236 234 235 247 255 264 258 255 237 212 204
94 78 195 226 260 310 251 260 111 151 17 104 238 294 293 273 239 228 228 261 252 239 234 229 225 220 222 224 223 224 226 226 221 226 235 246 247 260 252 245 240 249 260 264 265 257 221 209 208
55 94 300 262 293 294 353 337 346 339 310 150 276 254 280 329 295 263 245 261 264 257 247 239 233 231 227 225 226 227 228 227 224 226 235 240 250 261 267 252 249 254 256 254 250 234 221 220 221
187 60 256 249 18 297 335 1 353 326 296 298 265 263 292 302 292 279 266 268 273 270 262 250 241 237 234 233 230 228 226 227 225 227 231 236 245 257 268 276 257 253 255 255 245 232 226 227 230
114 123 226 211 173 273 297 274 308 311 304 296 292 300 288 290 309 298 277 283 285 273 280 271 255 245 239 235 233 231 230 221 224 228 232 235 243 253 261 272 265 263 263 260 248 234 233 235 239
173 192 217 264 268 289 307 297 259 205 288 293 299 308 301 296 295 289 285 284 289 285 269 275 265 253 246 240 235 230 231 231 228 230 234 240 245 252 259 264 269 261 260 261 255 246 243 244 247
171 244 242 268 284 295 279 295 303 271 278 307 310 308 297 294 300 297 291 289 284 285 282 269 269 259 255 250 241 235 233 234 235 237 240 242 248 254 259 265 274 270 261 257 254 247 245 246 249
216 268 261 264 280 282 283 268 272 281 293 303 333 336 357 349 335 307 307 295 276 267 276 267 257 261 255 257 254 242 236 234 237 239 243 245 248 254 260 268 273 275 263 259 259 253 249 249 250
235 298 290 289 278 277 264 284 277 284 311 312 314 359 360 3 336 296 284 296 282 266 261 264 254 258 256 256 262 261 249 242 239 240 243 245 241 248 258 267 272 274 263 260 262 260 256 254 254
317 323 317 279 276 224 194 140 232 296 298 289 324 3 34 34 350 8 359 308 301 281 256 249 245 249 252 254 259 266 263 255 253 251 250 249 247 252 270 272 272 279 259 261 262 261 257 253 252
330 25 335 285 145 147 133 257 272 314 294 291 23 71 78 74 67 67 60 56 321 251 237 223 209 215 238 241 248 257 262 253 248 251 248 259 251 251 272 277 278 285 270 267 266 264 263 262 259
343 233 212 308 260 125 174 244 259 287 295 295 112 94 90 90 80 66 59 59 63 81 152 181 185 184 197 222 232 239 245 249 250 255 259 259 262 266 270 273 275 277 273 275 275 270 268 267 267
205 219 249 246 272 105 245 250 270 291 296 333 118 100 90 80 66 62 65 73 82 96 113 137 148 154 176 196 215 227 232 232 240 247 247 256 264 269 274 273 269 270 273 281 281 279 277 275 273
195 212 239 259 264 271 264 278 3 15 49 99 97 96 89 83 79 77 77 83 94 108 119 116 132 125 171 189 194 194 204 215 221 236 251 256 263 273 279 279 278 282 282 285 286 283 280 279 278
235 241 247 260 244 263 288 306 43 38 51 81 99 96 96 95 89 82 79 77 76 77 78 81 83 86 93 99 129 177 211 223 238 244 246 254 258 263 282 289 283 282 282 282 278 279 283 283 279
222 214 231 232 331 286 347 294 62 49 73 87 96 104 98 91 87 82 78 76 76 74 73 75 77 79 78 78 96 135 179 197 235 256 259 262 261 256 252 262 274 280 280 281 283 282 277 279 284
267 211 216 194 82 238 48 280 206 166 85 75 99 98 93 90 85 79 74 71 67 65 65 67 69 71 74 77 81 79 77 68 46 30 14 331 268 265 269 269 269 269 272 278 284 280 277 277 278
221 151 152 160 171 42 307 123 269 135 166 130 101 99 94 83 78 74 71 66 64 60 56 52 52 55 52 50 54 55 55 54 47 41 34 29 5 326 309 304 300 295 290 282 275 278 281 277 275
133 57 36 46 100 274 211 164 246 193 190 146 127 116 109 101 88 78 73 69 66 63 59 54 47 50 48 44 43 42 41 38 28 24 18 16 12 9 3 351 335 322 309 297 291 284 279 274 272
100 80 316 338 348 232 148 144 261 316 143 153 144 133 120 109 99 88 77 68 64 60 57 53 48 48 45 40 39 35 29 21 16 10 6 0 356 352 351 349 344 337 330 321 308 298 290 284 277
177 160 165 210 214 248 298 244 276 47 106 130 138 136 132 123 109 93 77 65 57 55 52 48 44 43 35 30 27 22 16 10 4 1 353 346 345 344 339 332 328 327 325 322 316 311 303 295 289
181 177 189 101 38 44 228 76 94 106 116 134 143 149 152 150 141 115 95 65 57 54 48 43 45 41 26 19 11 2 359 353 350 346 342 339 333 329 327 328 325 320 318 318 314 310 308 303 295
152 161 78 12 230 251 278 253 204 189 178 174 169 173 178 174 170 168 155 93 50 55 61 54 38 28 21 7 0 352 345 341 336 332 328 327 326 323 322 322 320 317 317 315 312 311 307 302 300
57 214 82 133 144 193 260 254 2 183 177 179 193 197 193 188 190 188 193 217 44 72 41 22 18 11 8 2 1 355 344 339 331 328 326 323 321 320 319 317 314 311 311 312 309 306 304 303 301
298 212 166 158 242 241 174 260 333 168 175 183 198 203 203 206 203 202 210 227 210 335 352 348 348 347 347 346 342 341 338 334 330 328 326 322 319 315 314 311 309 306 305 305 304 304 301 299 298